COSMOS 2251 DEB, 34046

Orbit data source: Space-Track

COSMOS 2251 DEB, 34046 is space debris in LEO originally from a launch on Wed, 16 Jun 1993 UTC launched from the Plesetsk Missile And Space Complex (PKMTR). The debris from Iridium 33, an American commercial communications satellite, has been tracked extensively since its accidental collision with the defunct Russian satellite Cosmos 2251 in 2009. This event, occurring at high speed in low Earth orbit (LEO), generated thousands of pieces of space debris, significantly increasing the risk of further collisions. The Iridium 33 debris cloud has impacted space traffic management and orbital debris mitigation strategies, making it a subject of ongoing study in space situational awareness.

Loading next visibility...
Identifier
34046, 1993-036JH
Orbit
LEO
Country
Flag of CISCIS
Related business
Manufacturer
Unknown
Mission
Spacecraft
Bus & Motor
Unknown
Mass
Unknown
Launch date (UTC)
1993-06-16 (33 years ago)
Launch vehicle
Unknown
Launch site
Plesetsk Missile And Space Complex (PKMTR)
Object type
Payload
Rocket body
Debris
Shape & HBR
Unknown shape, 0.1 m
Radar Cross Section
Small (<0.1 m²)

Expand to show TLE details & history
Last TLE update: 21 hours ago

TLE from 21 hours ago
0 COSMOS 2251 DEB
1 34046U 93036JH  26037.00227079  .00004104  00000-0  10932-2 0  9999
2 34046  74.0368 267.2390 0076279 337.0247 142.2813 14.47087185886258
Epoch: 2026-02-06T00:03Z
TLE epoch observation values (Epoch: 2026-02-06T00:03:16.196Z)
Latitude
56.61914°
Longitude
-75.30852°
Altitude
787.378 km
Speed
7.443 km/s
True Right ascension
04h 06m 37s
True Declination
56° 27' 42"
Sunlit
Object was in daylight at epoch
Visualization orbit readout
Latitude
Unknown
Longitude
Unknown
Altitude
Unknown
Speed
Unknown
Apparent Right ascension
Unknown
Apparent Declination
Unknown
Sunlit
N/A
Visualization observer readout
Local Sidereal Time
23:05:29
Azimuth
Unknown
Elevation
Unknown
Doppler factor
Unknown
Orbital elements
Apogee altitude
787.031 km
Perigee altitude
678.548 km
Semi-major axis
7,110.927 km
Eccentricity
0.00763
Inclination
74.0368°
RAAN
267.239°
Arg. of periapsis
337.0247°
True anomaly
142.81205°
Mean anomaly
142.2813°
Eccentric anomaly
142.54707°
Mean motion
3.61954 °/min
Orbital period
99.46 mins
BSTAR
0.0010932
Loading maneuver chart data...
Computing Atmospheric mass density...

Documentation

Showing up to 5 results
|